WGS F6 (USA 244)

Last updated on Tue Sep 22 2026 00:03:12 GMT+0000 (Coordinated Universal Time)

1 39222U 13041A 26264.49821637 .00000085 00000+0 00000+0 0 9998 2 39222 0.0015 151.5733 0000136 291.0202 321.9549 1.00272691 47021
UTC large
Height (km)
Speed (km/s)
/
Latitude / Longitude
Inclination (degrees)
Orbital Period (minutes)
Azimuth
Elevation
Range (km)
Doppler Factor

Next 0 passes for location: London (51.5072 / 0.1276)

No passes found over London.
WGS F6 (USA 244)